NOZ278 ENGM-ENCN

Flight info

Callsign NOZ278
Flight time 0h 33m
Altitude 24000
Route VIPPA DCT OSVAL
Aircraft B738/M-SDE2E3GHIJ1LRWXY/LB1

Departure

Time 2026-05-06 16:03
Airport Oslo-Gardermoen International Airport (ENGM)

Arrival

Time 2026-05-06 16:36
Airport Kristiansand Airport (ENCN)
Time Latitude Longitude Altitude Speed Heading
2026-05-06 15:38 60.19551 11.09500 684 ft 0 kts 196°
2026-05-06 15:53 60.19567 11.09510 677 ft 4 kts 196°
2026-05-06 15:53 60.19592 11.09524 678 ft 3 kts 196°
2026-05-06 15:54 60.19596 11.09526 679 ft 1 kts 196°
2026-05-06 15:56 60.19595 11.09526 679 ft 0 kts 196°
2026-05-06 15:56 60.19588 11.09510 684 ft 3 kts 244°
2026-05-06 15:56 60.19614 11.09480 682 ft 8 kts 358°
2026-05-06 15:56 60.19679 11.09421 682 ft 12 kts 296°
2026-05-06 15:57 60.19703 11.09249 682 ft 14 kts 286°
2026-05-06 15:57 60.19731 11.09057 682 ft 15 kts 286°
2026-05-06 15:57 60.19762 11.08837 677 ft 18 kts 286°
2026-05-06 15:57 60.19826 11.08707 678 ft 15 kts
2026-05-06 15:58 60.19922 11.08760 679 ft 14 kts 17°
2026-05-06 15:58 60.20017 11.08811 679 ft 14 kts 15°
2026-05-06 15:58 60.20114 11.08869 680 ft 15 kts 16°
2026-05-06 15:58 60.20215 11.08928 680 ft 15 kts 15°
2026-05-06 15:59 60.20321 11.08987 681 ft 16 kts 16°
2026-05-06 15:59 60.20431 11.09052 681 ft 17 kts 16°
2026-05-06 15:59 60.20549 11.09118 681 ft 18 kts 15°
2026-05-06 15:59 60.20671 11.09190 682 ft 18 kts 17°
2026-05-06 16:00 60.20792 11.09261 683 ft 18 kts 16°
2026-05-06 16:00 60.20910 11.09328 684 ft 17 kts 16°
2026-05-06 16:00 60.21024 11.09394 685 ft 17 kts 16°
2026-05-06 16:00 60.21135 11.09457 685 ft 17 kts 16°
2026-05-06 16:01 60.21247 11.09521 686 ft 17 kts 16°
2026-05-06 16:01 60.21369 11.09591 686 ft 19 kts 16°
2026-05-06 16:01 60.21490 11.09632 683 ft 15 kts 344°
2026-05-06 16:01 60.21547 11.09503 681 ft 13 kts 289°
2026-05-06 16:02 60.21573 11.09325 681 ft 13 kts 286°
2026-05-06 16:02 60.21587 11.09173 683 ft 3 kts 247°
2026-05-06 16:02 60.21575 11.09153 682 ft 3 kts 208°
2026-05-06 16:02 60.21528 11.09122 683 ft 18 kts 197°
2026-05-06 16:03 60.21173 11.08916 681 ft 88 kts 195°
2026-05-06 16:03 60.20382 11.08464 676 ft 145 kts 196°
2026-05-06 16:03 60.19289 11.07848 894 ft 173 kts 197°
2026-05-06 16:03 60.18142 11.07210 1722 ft 172 kts 199°
2026-05-06 16:04 60.16970 11.06336 2094 ft 195 kts 216°
2026-05-06 16:04 60.16104 11.04139 2386 ft 210 kts 245°
2026-05-06 16:04 60.15468 11.01380 2765 ft 226 kts 247°
2026-05-06 16:04 60.14756 10.98380 3045 ft 249 kts 237°
2026-05-06 16:05 60.13501 10.95954 3783 ft 254 kts 219°
2026-05-06 16:05 60.12087 10.93780 4538 ft 258 kts 219°
2026-05-06 16:05 60.10678 10.91609 5328 ft 259 kts 219°
2026-05-06 16:05 60.09245 10.89390 6075 ft 263 kts 219°
2026-05-06 16:06 60.07793 10.87124 6846 ft 266 kts 219°
2026-05-06 16:06 60.06340 10.84843 7692 ft 265 kts 219°
2026-05-06 16:06 60.04878 10.82533 8431 ft 269 kts 219°
2026-05-06 16:06 60.03409 10.80209 9294 ft 270 kts 220°
2026-05-06 16:07 60.01926 10.77856 10026 ft 275 kts 220°
2026-05-06 16:07 60.00380 10.75400 10381 ft 295 kts 220°
2026-05-06 16:07 59.98710 10.72744 10580 ft 318 kts 220°
2026-05-06 16:07 59.96966 10.69971 11006 ft 330 kts 220°
2026-05-06 16:08 59.95160 10.67107 11764 ft 333 kts 221°
2026-05-06 16:08 59.93347 10.64236 12640 ft 333 kts 221°
2026-05-06 16:08 59.91533 10.61367 13522 ft 334 kts 221°
2026-05-06 16:08 59.89714 10.58497 14393 ft 333 kts 223°
2026-05-06 16:09 59.87889 10.55616 15160 ft 336 kts 223°
2026-05-06 16:09 59.86050 10.52713 15920 ft 339 kts 223°
2026-05-06 16:09 59.84194 10.49787 16693 ft 341 kts 223°
2026-05-06 16:09 59.82326 10.46847 17464 ft 344 kts 223°
2026-05-06 16:10 59.80454 10.43908 18373 ft 341 kts 223°
2026-05-06 16:10 59.78634 10.41061 19338 ft 333 kts 223°
2026-05-06 16:10 59.76836 10.38252 20307 ft 327 kts 223°
2026-05-06 16:10 59.75049 10.35457 21027 ft 328 kts 222°
2026-05-06 16:11 59.73248 10.32640 21723 ft 330 kts 222°
2026-05-06 16:11 59.71464 10.29859 22682 ft 323 kts 222°
2026-05-06 16:11 59.69709 10.27128 23539 ft 320 kts 222°
2026-05-06 16:11 59.67967 10.24419 23855 ft 317 kts 222°
2026-05-06 16:12 59.66231 10.21721 23904 ft 318 kts 222°
2026-05-06 16:12 59.64493 10.19023 23910 ft 316 kts 222°
2026-05-06 16:12 59.62769 10.16352 23919 ft 314 kts 222°
2026-05-06 16:12 59.61072 10.13725 23930 ft 314 kts 222°
2026-05-06 16:13 59.59351 10.11065 23920 ft 314 kts 222°
2026-05-06 16:13 59.57630 10.08410 23920 ft 314 kts 222°
2026-05-06 16:13 59.55904 10.05748 23920 ft 315 kts 222°
2026-05-06 16:13 59.54181 10.03096 23926 ft 315 kts 222°
2026-05-06 16:14 59.52455 10.00442 23913 ft 315 kts 222°
2026-05-06 16:14 59.50822 9.97939 23931 ft 314 kts 222°
2026-05-06 16:14 59.49093 9.95287 23910 ft 316 kts 222°
2026-05-06 16:14 59.47355 9.92627 23914 ft 317 kts 222°
2026-05-06 16:15 59.45633 9.90002 23923 ft 318 kts 222°
2026-05-06 16:15 59.43880 9.87322 23927 ft 320 kts 222°
2026-05-06 16:15 59.42115 9.84628 23932 ft 321 kts 222°
2026-05-06 16:15 59.40350 9.81940 23926 ft 320 kts 222°
2026-05-06 16:16 59.38615 9.79307 23909 ft 310 kts 222°
2026-05-06 16:16 59.36924 9.76745 23688 ft 304 kts 222°
2026-05-06 16:16 59.35260 9.74222 23383 ft 302 kts 222°
2026-05-06 16:16 59.33611 9.71725 23054 ft 297 kts 222°
2026-05-06 16:17 59.32005 9.69295 22704 ft 295 kts 222°
2026-05-06 16:17 59.30388 9.66850 22349 ft 293 kts 222°
2026-05-06 16:17 59.28785 9.64432 22022 ft 289 kts 222°
2026-05-06 16:17 59.27200 9.62041 21671 ft 287 kts 222°
2026-05-06 16:18 59.25623 9.59666 21343 ft 285 kts 222°
2026-05-06 16:18 59.24052 9.57302 20974 ft 285 kts 222°
2026-05-06 16:18 59.22448 9.54887 20688 ft 298 kts 222°
2026-05-06 16:18 59.20782 9.52379 20334 ft 306 kts 222°
2026-05-06 16:19 59.19085 9.49833 19970 ft 309 kts 221°
2026-05-06 16:19 59.17403 9.47319 19617 ft 309 kts 221°
2026-05-06 16:19 59.15698 9.44774 19256 ft 308 kts 221°
2026-05-06 16:19 59.14000 9.42244 18900 ft 306 kts 221°
2026-05-06 16:20 59.12313 9.39732 18546 ft 304 kts 221°
2026-05-06 16:20 59.10637 9.37240 18194 ft 303 kts 221°
2026-05-06 16:20 59.08966 9.34757 17800 ft 301 kts 221°
2026-05-06 16:20 59.07310 9.32299 17425 ft 298 kts 221°
2026-05-06 16:21 59.05665 9.29861 17071 ft 296 kts 221°
2026-05-06 16:21 59.04039 9.27452 16740 ft 293 kts 221°
2026-05-06 16:21 59.02444 9.25094 16406 ft 291 kts 221°
2026-05-06 16:21 59.00842 9.22728 16074 ft 289 kts 221°
2026-05-06 16:22 58.99254 9.20384 15740 ft 287 kts 221°
2026-05-06 16:22 58.97663 9.18038 15393 ft 288 kts 221°
2026-05-06 16:22 58.96066 9.15685 15083 ft 290 kts 220°
2026-05-06 16:22 58.94453 9.13310 14768 ft 292 kts 220°
2026-05-06 16:23 58.92834 9.10931 14433 ft 293 kts 220°
2026-05-06 16:23 58.91211 9.08551 14098 ft 293 kts 220°
2026-05-06 16:23 58.89608 9.06203 13771 ft 292 kts 220°
2026-05-06 16:23 58.87988 9.03831 13402 ft 292 kts 220°
2026-05-06 16:24 58.86375 9.01475 13039 ft 290 kts 220°
2026-05-06 16:24 58.84866 8.99272 12715 ft 287 kts 220°
2026-05-06 16:24 58.83275 8.96953 12393 ft 285 kts 220°
2026-05-06 16:24 58.81702 8.94662 12063 ft 282 kts 220°
2026-05-06 16:25 58.80139 8.92389 11742 ft 280 kts 220°
2026-05-06 16:25 58.78586 8.90132 11421 ft 279 kts 220°
2026-05-06 16:25 58.77043 8.87893 11096 ft 277 kts 220°
2026-05-06 16:25 58.75523 8.85690 10801 ft 276 kts 219°
2026-05-06 16:26 58.73989 8.83466 10473 ft 276 kts 219°
2026-05-06 16:26 58.72458 8.81250 10159 ft 275 kts 219°
2026-05-06 16:26 58.70939 8.79056 10031 ft 272 kts 219°
2026-05-06 16:26 58.69417 8.76858 9793 ft 277 kts 219°
2026-05-06 16:27 58.67863 8.74615 9462 ft 281 kts 219°
2026-05-06 16:27 58.66285 8.72340 9143 ft 286 kts 219°
2026-05-06 16:27 58.64695 8.70054 8795 ft 284 kts 219°
2026-05-06 16:27 58.63118 8.67788 8473 ft 282 kts 219°
2026-05-06 16:28 58.61555 8.65547 8140 ft 280 kts 219°
2026-05-06 16:28 58.60024 8.63353 7833 ft 277 kts 219°
2026-05-06 16:28 58.58480 8.61144 7512 ft 276 kts 219°
2026-05-06 16:28 58.56947 8.58951 7198 ft 275 kts 219°
2026-05-06 16:29 58.55414 8.56760 6862 ft 275 kts 219°
2026-05-06 16:29 58.53883 8.54574 6545 ft 274 kts 219°
2026-05-06 16:29 58.52352 8.52392 6213 ft 274 kts 219°
2026-05-06 16:29 58.50844 8.50244 5871 ft 267 kts 219°
2026-05-06 16:30 58.49376 8.48158 5571 ft 259 kts 219°
2026-05-06 16:30 58.48425 8.46809 5356 ft 255 kts 219°
2026-05-06 16:30 58.46580 8.44194 5050 ft 242 kts 220°
2026-05-06 16:30 58.45262 8.42316 4954 ft 233 kts 220°
2026-05-06 16:31 58.43989 8.40431 4800 ft 230 kts 219°
2026-05-06 16:31 58.42701 8.38634 4743 ft 230 kts 218°
2026-05-06 16:31 58.41392 8.36808 4647 ft 235 kts 219°
2026-05-06 16:31 58.40074 8.34957 4528 ft 236 kts 218°
2026-05-06 16:32 58.38741 8.33081 4258 ft 240 kts 218°
2026-05-06 16:32 58.37417 8.31206 4013 ft 234 kts 219°
2026-05-06 16:32 58.36160 8.29394 3775 ft 226 kts 218°
2026-05-06 16:32 58.34895 8.27711 3565 ft 218 kts 216°
2026-05-06 16:33 58.33655 8.26080 3330 ft 214 kts 216°
2026-05-06 16:33 58.32442 8.24471 3106 ft 210 kts 216°
2026-05-06 16:33 58.31236 8.22869 2864 ft 214 kts 216°
2026-05-06 16:34 58.28815 8.19670 2247 ft 206 kts 215°
2026-05-06 16:34 58.27669 8.18151 1900 ft 196 kts 215°
2026-05-06 16:34 58.26590 8.16724 1597 ft 184 kts 215°
2026-05-06 16:34 58.25621 8.15428 1347 ft 164 kts 214°
2026-05-06 16:35 58.24728 8.14249 1106 ft 149 kts 214°
2026-05-06 16:35 58.23909 8.13162 888 ft 141 kts 215°
2026-05-06 16:35 58.23127 8.12123 693 ft 135 kts 213°
2026-05-06 16:35 58.22345 8.11091 424 ft 141 kts 212°
2026-05-06 16:36 58.21524 8.10022 230 ft 144 kts 215°
2026-05-06 16:36 58.20752 8.08977 62 ft 130 kts 213°
2026-05-06 16:36 58.20203 8.08247 55 ft 57 kts 214°
2026-05-06 16:36 58.19977 8.07951 52 ft 33 kts 214°
2026-05-06 16:37 58.19805 8.07724 58 ft 24 kts 215°
2026-05-06 16:37 58.19709 8.07563 58 ft 12 kts 262°
2026-05-06 16:37 58.19771 8.07464 55 ft 12 kts 340°
2026-05-06 16:37 58.19850 8.07412 53 ft 11 kts 341°
2026-05-06 16:38 58.19923 8.07366 53 ft 11 kts 345°
2026-05-06 16:38 58.19996 8.07378 54 ft 11 kts 25°
2026-05-06 16:38 58.20057 8.07445 56 ft 10 kts 32°
2026-05-06 16:38 58.20110 8.07509 55 ft 10 kts 32°
2026-05-06 16:39 58.20167 8.07576 54 ft 9 kts 31°
2026-05-06 16:39 58.20209 8.07618 53 ft 3 kts
2026-05-06 16:39 58.20229 8.07600 53 ft 3 kts 317°
2026-05-06 16:39 58.20240 8.07572 57 ft 2 kts 305°
2026-05-06 16:40 58.20244 8.07561 55 ft 1 kts 303°
2026-05-06 16:40 58.20245 8.07558 56 ft 0 kts 303°